Time,TemperatureF,DewpointF,PressureIn,WindDirection,WindDirectionDegrees,WindSpeedMPH,WindSpeedGustMPH,Humidity,HourlyPrecipIn,Conditions,Clouds,dailyrainin,SoftwareType,DateUTC
2013-05-03 00:02:00,-999.0,-99.9,30.14,East,83,5.0,6.0,-999,-99.99,,,-99.99,,2013-05-03 08:02:00,
2013-05-03 00:12:00,-999.0,-99.9,30.14,ENE,61,6.0,7.0,-999,-99.99,,,-99.99,,2013-05-03 08:12:00,
2013-05-03 00:22:00,15.0,-99.9,30.15,NNE,28,5.0,8.0,-999,-99.99,,,-99.99,,2013-05-03 08:22:00,
2013-05-03 00:32:00,-999.0,-99.9,30.15,SSE,151,3.0,6.0,-999,-99.99,,,-99.99,,2013-05-03 08:32:00,
2013-05-03 00:42:00,16.0,-99.9,30.15,East,97,4.0,6.0,-999,-99.99,,,-99.99,,2013-05-03 08:42:00,
2013-05-03 00:53:00,-999.0,-99.9,30.16,NNE,30,5.0,6.0,-999,-99.99,,,-99.99,,2013-05-03 08:53:00,
2013-05-03 01:01:00,-999.0,-99.9,30.16,NW,321,4.0,6.0,-999,-99.99,,,-99.99,,2013-05-03 09:01:00,
2013-05-03 01:12:00,13.0,-99.9,30.16,NNW,330,2.0,4.0,-999,-99.99,,,-99.99,,2013-05-03 09:12:00,
2013-05-03 01:21:00,-999.0,-99.9,30.16,East,86,2.0,6.0,-999,-99.99,,,-99.99,,2013-05-03 09:21:00,
2013-05-03 01:33:00,-999.0,-99.9,30.16,North,8,4.0,5.0,-999,-99.99,,,-99.99,,2013-05-03 09:33:00,
2013-05-03 01:42:00,-999.0,-99.9,30.16,North,359,4.0,5.0,-999,-99.99,,,-99.99,,2013-05-03 09:42:00,
2013-05-03 01:53:00,15.0,-99.9,30.16,North,9,2.0,4.0,-999,-99.99,,,-99.99,,2013-05-03 09:53:00,
2013-05-03 02:03:00,-999.0,-99.9,30.16,NNE,12,2.0,3.0,-999,-99.99,,,-99.99,,2013-05-03 10:03:00,
2013-05-03 02:13:00,14.0,-99.9,30.16,NNW,345,2.0,3.0,-999,-99.99,,,-99.99,,2013-05-03 10:13:00,
2013-05-03 02:22:00,-999.0,-99.9,30.16,ESE,122,3.0,6.0,-999,-99.99,,,-99.99,,2013-05-03 10:22:00,
2013-05-03 02:32:00,-999.0,-99.9,30.16,NNE,31,4.0,4.0,-999,-99.99,,,-99.99,,2013-05-03 10:32:00,
2013-05-03 02:42:00,13.0,-99.9,30.16,North,4,4.0,5.0,-999,-99.99,,,-99.99,,2013-05-03 10:42:00,
2013-05-03 02:52:00,-999.0,-99.9,30.17,WSW,239,2.0,7.0,-999,-99.99,,,-99.99,,2013-05-03 10:52:00,
2013-05-03 03:02:00,-999.0,-99.9,30.17,West,264,4.0,4.0,-999,-99.99,,,-99.99,,2013-05-03 11:02:00,
2013-05-03 03:11:00,-999.0,-99.9,30.17,WSW,241,5.0,5.0,-999,-99.99,,,-99.99,,2013-05-03 11:11:00,
2013-05-03 03:22:00,-999.0,-99.9,30.17,West,273,4.0,6.0,-999,-99.99,,,-99.99,,2013-05-03 11:22:00,
2013-05-03 03:32:00,-999.0,-99.9,30.17,NW,306,1.0,4.0,-999,-99.99,,,-99.99,,2013-05-03 11:32:00,
2013-05-03 03:42:00,10.0,-99.9,30.17,WSW,257,3.0,4.0,-999,-99.99,,,-99.99,,2013-05-03 11:42:00,
2013-05-03 03:52:00,-999.0,-99.9,30.17,SW,225,2.0,4.0,-999,-99.99,,,-99.99,,2013-05-03 11:52:00,
2013-05-03 04:02:00,-999.0,-99.9,30.17,WNW,285,4.0,4.0,-999,-99.99,,,-99.99,,2013-05-03 12:02:00,
2013-05-03 04:12:00,9.0,-99.9,30.17,WNW,299,3.0,4.0,-999,-99.99,,,-99.99,,2013-05-03 12:12:00,
2013-05-03 04:22:00,-999.0,-99.9,30.17,NNW,342,3.0,4.0,-999,-99.99,,,-99.99,,2013-05-03 12:22:00,
2013-05-03 04:32:00,-999.0,-99.9,30.17,North,1,2.0,3.0,-999,-99.99,,,-99.99,,2013-05-03 12:32:00,
2013-05-03 04:42:00,-999.0,-99.9,30.17,NE,42,5.0,6.0,-999,-99.99,,,-99.99,,2013-05-03 12:42:00,
2013-05-03 04:52:00,-999.0,-99.9,30.17,NNE,27,5.0,6.0,-999,-99.99,,,-99.99,,2013-05-03 12:52:00,
2013-05-03 05:01:00,-999.0,-99.9,30.17,SE,135,4.0,5.0,-999,-99.99,,,-99.99,,2013-05-03 13:01:00,
2013-05-03 05:11:00,9.0,-99.9,30.17,East,81,2.0,4.0,-999,-99.99,,,-99.99,,2013-05-03 13:11:00,
2013-05-03 05:22:00,-999.0,-99.9,30.17,NNE,33,2.0,2.0,-999,-99.99,,,-99.99,,2013-05-03 13:22:00,
2013-05-03 05:32:00,-999.0,-99.9,30.17,NNE,32,3.0,4.0,-999,-99.99,,,-99.99,,2013-05-03 13:32:00,
2013-05-03 05:42:00,12.0,-99.9,30.17,NNE,21,4.0,4.0,-999,-99.99,,,-99.99,,2013-05-03 13:42:00,
2013-05-03 05:52:00,-999.0,-99.9,30.17,NNW,331,5.0,6.0,-999,-99.99,,,-99.99,,2013-05-03 13:52:00,
2013-05-03 06:02:00,-999.0,-99.9,30.17,NNW,340,4.0,6.0,-999,-99.99,,,-99.99,,2013-05-03 14:02:00,
2013-05-03 06:11:00,9.0,-99.9,30.17,North,357,3.0,4.0,-999,-99.99,,,-99.99,,2013-05-03 14:11:00,
2013-05-03 06:22:00,-999.0,-99.9,30.17,NE,49,2.0,3.0,-999,-99.99,,,-99.99,,2013-05-03 14:22:00,
2013-05-03 06:32:00,-999.0,-99.9,30.16,East,94,3.0,3.0,-999,-99.99,,,-99.99,,2013-05-03 14:32:00,
2013-05-03 06:42:00,-999.0,-99.9,30.17,SE,140,6.0,6.0,-999,-99.99,,,-99.99,,2013-05-03 14:42:00,
2013-05-03 06:52:00,6.0,-99.9,30.17,SE,144,4.0,6.0,-999,-99.99,,,-99.99,,2013-05-03 14:52:00,
2013-05-03 07:01:00,-999.0,-99.9,30.17,South,170,5.0,7.0,-999,-99.99,,,-99.99,,2013-05-03 15:01:00,
2013-05-03 07:11:00,8.0,-99.9,30.17,South,187,3.0,4.0,-999,-99.99,,,-99.99,,2013-05-03 15:11:00,
2013-05-03 07:22:00,-999.0,-99.9,30.17,SW,234,1.0,4.0,-999,-99.99,,,-99.99,,2013-05-03 15:22:00,
2013-05-03 07:32:00,-999.0,-99.9,30.17,WNW,289,3.0,4.0,-999,-99.99,,,-99.99,,2013-05-03 15:32:00,
2013-05-03 07:43:00,6.0,-99.9,30.17,WSW,238,1.0,3.0,-999,-99.99,,,-99.99,,2013-05-03 15:43:00,
2013-05-03 07:53:00,-999.0,-99.9,30.17,South,175,1.0,1.0,-999,-99.99,,,-99.99,,2013-05-03 15:53:00,
2013-05-03 08:03:00,-999.0,-99.9,30.17,ESE,102,1.0,3.0,-999,-99.99,,,-99.99,,2013-05-03 16:03:00,
2013-05-03 08:13:00,-999.0,-99.9,30.17,East,82,2.0,2.0,-999,-99.99,,,-99.99,,2013-05-03 16:13:00,
2013-05-03 08:23:00,-999.0,-99.9,30.17,ENE,72,2.0,2.0,-999,-99.99,,,-99.99,,2013-05-03 16:23:00,
2013-05-03 08:33:00,-999.0,-99.9,30.17,ENE,72,3.0,4.0,-999,-99.99,,,-99.99,,2013-05-03 16:33:00,
2013-05-03 08:42:00,10.0,-99.9,30.17,ENE,69,3.0,4.0,-999,-99.99,,,-99.99,,2013-05-03 16:42:00,
2013-05-03 08:52:00,-999.0,-99.9,30.17,NE,56,3.0,3.0,-999,-99.99,,,-99.99,,2013-05-03 16:52:00,
2013-05-03 09:02:00,-999.0,-99.9,30.17,NNE,13,2.0,2.0,-999,-99.99,,,-99.99,,2013-05-03 17:02:00,
2013-05-03 09:12:00,16.0,-99.9,30.18,NNE,13,1.0,2.0,-999,-99.99,,,-99.99,,2013-05-03 17:12:00,
2013-05-03 09:42:00,-999.0,-99.9,30.18,North,3,1.0,2.0,-999,-99.99,,,-99.99,,2013-05-03 17:42:00,
2013-05-03 09:52:00,-999.0,-99.9,30.18,NNW,342,2.0,2.0,-999,-99.99,,,-99.99,,2013-05-03 17:52:00,
2013-05-03 10:01:00,-999.0,-99.9,30.18,NNW,331,3.0,3.0,-999,-99.99,,,-99.99,,2013-05-03 18:01:00,
2013-05-03 10:12:00,14.0,-99.9,30.18,NW,321,3.0,3.0,-999,-99.99,,,-99.99,,2013-05-03 18:12:00,
2013-05-03 10:22:00,-999.0,-99.9,30.18,WNW,298,2.0,3.0,-999,-99.99,,,-99.99,,2013-05-03 18:22:00,
2013-05-03 10:32:00,-999.0,-99.9,30.18,NW,310,3.0,3.0,-999,-99.99,,,-99.99,,2013-05-03 18:32:00,
2013-05-03 10:42:00,15.0,-99.9,30.18,NNW,329,2.0,4.0,-999,-99.99,,,-99.99,,2013-05-03 18:42:00,
2013-05-03 10:52:00,-999.0,-99.9,30.18,NNW,344,1.0,1.0,-999,-99.99,,,-99.99,,2013-05-03 18:52:00,
2013-05-03 11:11:00,-999.0,-99.9,30.18,NNW,330,1.0,2.0,-999,-99.99,,,-99.99,,2013-05-03 19:11:00,
2013-05-03 11:22:00,-999.0,-99.9,30.18,NNW,329,1.0,2.0,-999,-99.99,,,-99.99,,2013-05-03 19:22:00,
2013-05-03 11:32:00,-999.0,-99.9,30.18,SSE,152,4.0,4.0,-999,-99.99,,,-99.99,,2013-05-03 19:32:00,
2013-05-03 11:42:00,15.0,-99.9,30.18,SSE,165,2.0,4.0,-999,-99.99,,,-99.99,,2013-05-03 19:42:00,
2013-05-03 11:52:00,-999.0,-99.9,30.18,SSE,161,1.0,2.0,-999,-99.99,,,-99.99,,2013-05-03 19:52:00,
2013-05-03 12:02:00,-999.0,-99.9,30.19,SSE,159,2.0,3.0,-999,-99.99,,,-99.99,,2013-05-03 20:02:00,
2013-05-03 12:12:00,19.0,-99.9,30.19,SSE,148,3.0,3.0,-999,-99.99,,,-99.99,,2013-05-03 20:12:00,
2013-05-03 12:22:00,-999.0,-99.9,30.19,SE,131,2.0,3.0,-999,-99.99,,,-99.99,,2013-05-03 20:22:00,
2013-05-03 12:32:00,-999.0,-99.9,30.19,SSE,158,2.0,3.0,-999,-99.99,,,-99.99,,2013-05-03 20:32:00,
2013-05-03 12:42:00,23.0,-99.9,30.19,SE,135,1.0,2.0,-999,-99.99,,,-99.99,,2013-05-03 20:42:00,
2013-05-03 12:52:00,-999.0,-99.9,30.19,South,169,1.0,2.0,-999,-99.99,,,-99.99,,2013-05-03 20:52:00,
2013-05-03 13:02:00,-999.0,-99.9,30.19,SSE,155,2.0,3.0,-999,-99.99,,,-99.99,,2013-05-03 21:02:00,
2013-05-03 13:11:00,23.0,-99.9,30.19,SSE,156,2.0,3.0,-999,-99.99,,,-99.99,,2013-05-03 21:11:00,
2013-05-03 13:22:00,-999.0,-99.9,30.19,SSE,166,1.0,2.0,-999,-99.99,,,-99.99,,2013-05-03 21:22:00,
2013-05-03 13:33:00,-999.0,-99.9,30.19,SE,134,2.0,2.0,-999,-99.99,,,-99.99,,2013-05-03 21:33:00,
2013-05-03 13:43:00,25.0,-99.9,30.19,ESE,106,2.0,2.0,-999,-99.99,,,-99.99,,2013-05-03 21:43:00,
2013-05-03 13:53:00,-999.0,-99.9,30.19,SSE,151,1.0,3.0,-999,-99.99,,,-99.99,,2013-05-03 21:53:00,
2013-05-03 14:03:00,-999.0,-99.9,30.19,SE,125,1.0,3.0,-999,-99.99,,,-99.99,,2013-05-03 22:03:00,
2013-05-03 14:13:00,-999.0,-99.9,30.19,ESE,105,0.0,1.0,-999,-99.99,,,-99.99,,2013-05-03 22:13:00,
2013-05-03 14:22:00,-999.0,-99.9,30.19,SW,218,1.0,1.0,-999,-99.99,,,-99.99,,2013-05-03 22:22:00,
2013-05-03 14:32:00,-999.0,-99.9,30.19,SW,218,1.0,2.0,-999,-99.99,,,-99.99,,2013-05-03 22:32:00,
2013-05-03 14:42:00,33.0,-99.9,30.19,WSW,256,1.0,2.0,-999,-99.99,,,-99.99,,2013-05-03 22:42:00,
2013-05-03 14:52:00,-999.0,-99.9,30.19,SSE,164,1.0,3.0,-999,-99.99,,,-99.99,,2013-05-03 22:52:00,
2013-05-03 15:11:00,32.0,-99.9,30.19,West,259,0.0,1.0,-999,-99.99,,,-99.99,,2013-05-03 23:11:00,
2013-05-03 15:22:00,-999.0,-99.9,30.19,SSE,153,2.0,2.0,-999,-99.99,,,-99.99,,2013-05-03 23:22:00,
2013-05-03 15:32:00,-999.0,-99.9,30.19,SSE,157,2.0,2.0,-999,-99.99,,,-99.99,,2013-05-03 23:32:00,
2013-05-03 15:41:00,-999.0,-99.9,30.19,WSW,245,1.0,2.0,-999,-99.99,,,-99.99,,2013-05-03 23:41:00,
2013-05-03 15:52:00,-999.0,-99.9,30.19,South,177,1.0,2.0,-999,-99.99,,,-99.99,,2013-05-03 23:52:00,
2013-05-03 16:01:00,-999.0,-99.9,30.19,SSE,166,2.0,4.0,-999,-99.99,,,-99.99,,2013-05-04 00:01:00,
2013-05-03 16:11:00,27.0,-99.9,30.19,SE,137,2.0,3.0,-999,-99.99,,,-99.99,,2013-05-04 00:11:00,
2013-05-03 16:23:00,-999.0,-99.9,30.19,SSW,213,2.0,3.0,-999,-99.99,,,-99.99,,2013-05-04 00:23:00,
2013-05-03 16:32:00,-999.0,-99.9,30.19,SSW,202,2.0,3.0,-999,-99.99,,,-99.99,,2013-05-04 00:32:00,
2013-05-03 16:42:00,29.0,-99.9,30.19,WSW,247,3.0,4.0,-999,-99.99,,,-99.99,,2013-05-04 00:42:00,
2013-05-03 16:52:00,-999.0,-99.9,30.19,WSW,237,2.0,3.0,-999,-99.99,,,-99.99,,2013-05-04 00:52:00,
2013-05-03 17:01:00,-999.0,-99.9,30.19,West,260,4.0,6.0,-999,-99.99,,,-99.99,,2013-05-04 01:01:00,
2013-05-03 17:11:00,-999.0,-99.9,30.19,West,274,5.0,6.0,-999,-99.99,,,-99.99,,2013-05-04 01:11:00,
2013-05-03 17:22:00,-999.0,-99.9,30.18,West,275,6.0,7.0,-999,-99.99,,,-99.99,,2013-05-04 01:22:00,
2013-05-03 17:32:00,-999.0,-99.9,30.18,WNW,285,7.0,8.0,-999,-99.99,,,-99.99,,2013-05-04 01:32:00,
2013-05-03 17:42:00,25.0,-99.9,30.18,WNW,283,7.0,8.0,-999,-99.99,,,-99.99,,2013-05-04 01:42:00,
2013-05-03 17:52:00,-999.0,-99.9,30.18,WNW,284,7.0,8.0,-999,-99.99,,,-99.99,,2013-05-04 01:52:00,
2013-05-03 18:02:00,-999.0,-99.9,30.18,WNW,291,7.0,9.0,-999,-99.99,,,-99.99,,2013-05-04 02:02:00,
2013-05-03 18:11:00,24.0,-99.9,30.18,WNW,283,9.0,9.0,-999,-99.99,,,-99.99,,2013-05-04 02:11:00,
2013-05-03 18:21:00,-999.0,-99.9,30.17,WNW,284,8.0,9.0,-999,-99.99,,,-99.99,,2013-05-04 02:21:00,
2013-05-03 18:32:00,-999.0,-99.9,30.17,WNW,282,7.0,9.0,-999,-99.99,,,-99.99,,2013-05-04 02:32:00,
2013-05-03 18:42:00,25.0,-99.9,30.17,West,278,8.0,9.0,-999,-99.99,,,-99.99,,2013-05-04 02:42:00,
2013-05-03 18:52:00,-999.0,-99.9,30.17,West,280,8.0,8.0,-999,-99.99,,,-99.99,,2013-05-04 02:52:00,
2013-05-03 19:02:00,-999.0,-99.9,30.17,WNW,286,8.0,9.0,-999,-99.99,,,-99.99,,2013-05-04 03:02:00,
2013-05-03 19:11:00,24.0,-99.9,30.17,WNW,284,7.0,9.0,-999,-99.99,,,-99.99,,2013-05-04 03:11:00,
2013-05-03 19:22:00,-999.0,-99.9,30.17,West,279,8.0,8.0,-999,-99.99,,,-99.99,,2013-05-04 03:22:00,
2013-05-03 19:33:00,-999.0,-99.9,30.17,WNW,282,8.0,10.0,-999,-99.99,,,-99.99,,2013-05-04 03:33:00,
2013-05-03 19:43:00,-999.0,-99.9,30.17,WNW,282,8.0,9.0,-999,-99.99,,,-99.99,,2013-05-04 03:43:00,
2013-05-03 19:53:00,24.0,-99.9,30.17,West,277,7.0,9.0,-999,-99.99,,,-99.99,,2013-05-04 03:53:00,
2013-05-03 20:02:00,-999.0,-99.9,30.17,West,277,8.0,9.0,-999,-99.99,,,-99.99,,2013-05-04 04:02:00,
2013-05-03 20:13:00,24.0,-99.9,30.17,West,280,9.0,10.0,-999,-99.99,,,-99.99,,2013-05-04 04:13:00,
2013-05-03 20:23:00,-999.0,-99.9,30.17,WNW,285,9.0,10.0,-999,-99.99,,,-99.99,,2013-05-04 04:23:00,
2013-05-03 20:33:00,-999.0,-99.9,30.17,WNW,286,9.0,10.0,-999,-99.99,,,-99.99,,2013-05-04 04:33:00,
2013-05-03 20:43:00,22.0,-99.9,30.17,WNW,285,9.0,10.0,-999,-99.99,,,-99.99,,2013-05-04 04:43:00,
2013-05-03 20:53:00,-999.0,-99.9,30.17,WNW,284,8.0,9.0,-999,-99.99,,,-99.99,,2013-05-04 04:53:00,
2013-05-03 21:02:00,-999.0,-99.9,30.17,WNW,284,8.0,9.0,-999,-99.99,,,-99.99,,2013-05-04 05:02:00,
2013-05-03 21:12:00,-999.0,-99.9,30.17,WNW,287,7.0,8.0,-999,-99.99,,,-99.99,,2013-05-04 05:12:00,
2013-05-03 21:22:00,-999.0,-99.9,30.17,WNW,285,7.0,8.0,-999,-99.99,,,-99.99,,2013-05-04 05:22:00,
2013-05-03 21:32:00,-999.0,-99.9,30.17,WNW,282,5.0,6.0,-999,-99.99,,,-99.99,,2013-05-04 05:32:00,
2013-05-03 21:43:00,21.0,-99.9,30.17,West,278,6.0,6.0,-999,-99.99,,,-99.99,,2013-05-04 05:43:00,
2013-05-03 21:52:00,-999.0,-99.9,30.17,WNW,284,5.0,7.0,-999,-99.99,,,-99.99,,2013-05-04 05:52:00,
2013-05-03 22:02:00,-999.0,-99.9,30.17,West,277,6.0,7.0,-999,-99.99,,,-99.99,,2013-05-04 06:02:00,
2013-05-03 22:12:00,-999.0,-99.9,30.17,West,277,6.0,7.0,-999,-99.99,,,-99.99,,2013-05-04 06:12:00,
2013-05-03 22:22:00,-999.0,-99.9,30.17,West,265,4.0,5.0,-999,-99.99,,,-99.99,,2013-05-04 06:22:00,
2013-05-03 22:32:00,-999.0,-99.9,30.17,West,264,5.0,5.0,-999,-99.99,,,-99.99,,2013-05-04 06:32:00,
2013-05-03 22:42:00,-999.0,-99.9,30.17,West,260,6.0,6.0,-999,-99.99,,,-99.99,,2013-05-04 06:42:00,
2013-05-03 22:52:00,-999.0,-99.9,30.17,West,264,5.0,6.0,-999,-99.99,,,-99.99,,2013-05-04 06:52:00,
2013-05-03 23:01:00,-999.0,-99.9,30.17,West,279,4.0,6.0,-999,-99.99,,,-99.99,,2013-05-04 07:01:00,
2013-05-03 23:11:00,16.0,-99.9,30.17,West,277,4.0,5.0,-999,-99.99,,,-99.99,,2013-05-04 07:11:00,
2013-05-03 23:22:00,-999.0,-99.9,30.17,West,275,4.0,5.0,-999,-99.99,,,-99.99,,2013-05-04 07:22:00,
2013-05-03 23:32:00,-999.0,-99.9,30.17,WNW,293,4.0,4.0,-999,-99.99,,,-99.99,,2013-05-04 07:32:00,
2013-05-03 23:42:00,15.0,-99.9,30.17,WNW,292,5.0,5.0,-999,-99.99,,,-99.99,,2013-05-04 07:42:00,
2013-05-03 23:52:00,-999.0,-99.9,30.17,WNW,288,4.0,4.0,-999,-99.99,,,-99.99,,2013-05-04 07:52:00,